User: anonymous   Login
Location: Audinghen
(50.8518°N, 1.6129°E)
Time: 15:21:47
(UTC+00:00)
Language:

FALCON 9 DEB - Orbit

View from above orbital plane
View from above orbital plane
View from above satellite
View from above satellite

Ground track
Ground track

The orbit data is extracted from the following two-line orbital elements,

1 44295U 19029BN  20296.11657452  .00003775  00000-0  89921-4 0  9990
2 44295  53.0009 237.0627 0010808 108.3178 251.9003 15.44217766 81063
Epoch (UTC): 22 October 2020 02:47:52
Eccentricity: 0.0010808
inclination: 53.0009°
perigee height: 426 km
apogee height: 441 km
right ascension of ascending node: 237.0627°
argument of perigee: 108.3178°
revolutions per day: 15.44217766
mean anomaly at epoch: 251.9003°
orbit number at epoch: 8106

The dashed part of the orbit path shows where the satellite is in the earth's shadow,  

DLR